Flag Weather past 2 weeks in Varel, Lower Saxony, Germany

Now
50 °F

Fog.


Feels Like: 46 °F
Forecast: 51 / 60 °F
Wind: 9 mph from Southeast

Location: Wittmundhaven

Current Time: Oct 30, 2014 at 2:52:36 PM

Latest Report: Oct 30, 2014 at 2:20 PM


Visibility: 3 mi

Pressure: 30.21 "Hg

Humidity: 88%

Dew point: 46 °F

Location of VarelLocation

Historic Weather in Varel — Graph

°F

Varel temperature yesterday

Maximum temperature yesterday: 52 °F (at 2:01 PM)
Minimum temperature yesterday: 37 °F (at 11:20 PM)
Average temperature yesterday: 47 °F

Past Weeks' High & Low Weather Summary

 TemperatureHumidityPressure
High68 °F (Oct 19, 12:20 PM)100% (Oct 15, 11:20 PM)30.24 "Hg (Oct 15, 11:20 PM)
Low36 °F (Oct 30, 2:20 AM)58% (Oct 22, 10:20 PM)29.33 "Hg (Oct 21, 4:20 PM)
Average53 °F88%29.94 "Hg
* Reported Oct 15 2:20 PM — Oct 30 1:20 PM, Varel, Weather by CustomWeather, © 2014

Note: Actual official high and low records may vary slightly from our data, if they occured in-between our weather recording intervals... More about our weather records

Advertising

Varel weather history for previous 24 hours

 ConditionsComfort  
Time TempWeatherWind HumidityBarometerVisibility
1:20 PM
Oct 30
50 °FFog.7 mph88%30.24 "Hg3 mi
12:50 PM48 °FFog.6 mph94%30.24 "Hg2 mi
12:20 PM48 °FFog.7 mph94%30.24 "Hg2 mi
11:46 AM50 °FFog.8 mph88%30.24 "Hg2 mi
11:20 AM48 °FFog.7 mph87%30.24 "Hg3 mi
10:20 AM46 °FBroken clouds.7 mph93%30.24 "Hg4 mi
9:20 AM41 °FFog.2 mph100%30.24 "Hg2 mi
8:20 AM37 °FFog.3 mph100%30.21 "Hg1 mi
7:46 AM39 °FFog.1 mph93%30.21 "Hg1 mi
7:20 AM37 °FFog.No wind100%30.21 "Hg0 mi
6:45 AM37 °FFog.3 mph93%30.21 "Hg0 mi
6:20 AM37 °FFog.5 mph93%30.21 "HgN/A
5:20 AM37 °FPassing clouds.3 mph93%30.21 "HgN/A
4:20 AM36 °FChilly.5 mph93%30.18 "Hg2 mi
3:20 AM36 °FChilly.1 mph93%30.18 "Hg0 mi
2:20 AM36 °FChilly.No wind100%30.18 "Hg3 mi
1:20 AM37 °FChilly.1 mph93%30.18 "Hg2 mi
12:20 AM37 °FChilly.2 mph93%30.18 "Hg2 mi
11:20 PM
Oct 29
37 °FChilly.3 mph100%30.15 "Hg0 mi
10:20 PM39 °FChilly.2 mph100%30.15 "Hg3 mi
9:20 PM43 °FQuite cool.1 mph93%30.15 "Hg2 mi
8:20 PM48 °FCool.5 mph82%30.12 "Hg3 mi
7:20 PM50 °FPassing clouds.6 mph76%30.09 "HgN/A
6:20 PM52 °FPassing clouds.6 mph77%30.09 "HgN/A
5:20 PM52 °FPassing clouds.7 mph82%30.07 "HgN/A
4:20 PM52 °FPartly sunny.6 mph82%30.07 "HgN/A
3:48 PM52 °FPartly sunny.9 mph88%30.04 "Hg5 mi
3:20 PM52 °FFog.9 mph94%30.04 "Hg3 mi
2:20 PM52 °FFog.1 mph100%30.04 "Hg2 mi
2:01 PM52 °FFog.1 mph94%30.01 "Hg2 mi
Weather by CustomWeather, © 2014

See weather overviewHow to use our weather pages